This demonstration page uses our WeatherBlox Daily Observations layout. Learn more.

Left ArrowRight Arrow

Hourly Observations for September 17, 2018

Temp ( °F °C ) Dew Point ( °F °C ) Humidity (%) Winds ( mph kmh ) Pressure ( in mb ) Visibility ( mi km ) Precip ( " mm )
12:57 am 00:57 Clear 70 21.1 66 18.9 87 87 S 8 13 29.89 1012 10 16 0.00 0.00
1:57 am 01:57 Clear 69 20.6 65 18.3 87 87 S 8 13 29.89 1012 10 16 0.00 0.00
2:57 am 02:57 Clear 68 20 65 18.3 90 90 SSE 6 9 29.89 1012 10 16 0.00 0.00
3:57 am 03:57 Clear 67 19.4 64 17.8 91 91 S 8 13 29.88 1012 10 16 0.00 0.00
4:57 am 04:57 Clear 66 18.9 64 17.8 93 93 SSE 5 7 29.87 1012 10 16 0.00 0.00
5:57 am 05:57 Clear 64 17.8 62 16.7 93 93 SSE 3 6 29.88 1012 9 14 0.00 0.00
6:57 am 06:57 Clear 65 18.3 63 17.2 93 93 S 5 7 29.88 1012 8 13 0.00 0.00
7:57 am 07:57 Sunny 66 18.9 64 17.8 93 93 S 7 11 29.89 1012 10 16 0.00 0.00
8:57 am 08:57 Sunny 71 21.7 67 19.4 87 87 S 10 17 29.89 1012 10 16 0.00 0.00
9:57 am 09:57 Sunny 76 24.4 68 20 77 77 SSW 9 15 29.89 1012 10 16 0.00 0.00
10:57 am 10:57 Sunny 80 26.7 68 20 67 67 S 9 15 29.89 1012 10 16 0.00 0.00
11:57 am 11:57 Sunny 83 28.3 69 20.6 63 63 S 10 17 29.88 1012 10 16 0.00 0.00
12:57 pm 12:57 Sunny 88 31.1 68 20 52 52 S 12 19 29.86 1011 10 16 0.00 0.00
1:57 pm 13:57 Sunny 91 32.8 66 18.9 44 44 S 16 26 29.85 1011 10 16 0.00 0.00
2:57 pm 14:57 Sunny 92 33.3 65 18.3 41 41 S 21 33 29.83 1010 10 16 0.00 0.00
3:57 pm 15:57 Sunny 92 33.3 66 18.9 43 43 S 16 26 29.81 1010 10 16 0.00 0.00
4:57 pm 16:57 Sunny 93 33.9 64 17.8 38 38 S 15 24 29.81 1009 10 16 0.00 0.00
5:57 pm 17:57 Sunny 91 32.8 64 17.8 41 41 S 15 24 29.80 1009 10 16 0.00 0.00
6:57 pm 18:57 Sunny 88 31.1 64 17.8 45 45 S 12 19 29.81 1010 10 16 0.00 0.00
7:57 pm 19:57 Clear 83 28.3 65 18.3 55 55 SSE 10 17 29.81 1010 10 16 0.00 0.00
9:57 pm 21:57 Clear 76 24.4 64 17.8 67 67 SSE 8 13 29.85 1011 10 16 0.00 0.00
10:57 pm 22:57 Clear 75 23.9 65 18.3 71 71 S 9 15 29.85 1011 10 16 0.00 0.00
11:57 pm 23:57 Clear 74 23.3 66 18.9 76 76 S 9 15 29.86 1011 10 16 0.00 0.00

Powered by AerisWeather